Shannon, Ireland

10:20 PM IST on April 30, 2017 (GMT +0100)
Shannon

Weather History for EINN - May, 2014

Change the Weather History Date:

Tuesday, May 20, 2014

  Actual Average Record
Temperature  
Mean Temperature 58 °F -  
Max Temperature 64 °F 63 °F 73 °F (1998)
Min Temperature 51 °F 48 °F 42 °F (2007)
Degree Days  
Heating Degree Days 8    
Growing Degree Days 8 (Base 50)    
Moisture  
Dew Point 52 °F    
Average Humidity 88    
Maximum Humidity 100    
Minimum Humidity 56    
Precipitation  
Precipitation 0.31 in 0.08 in - ()
Sea Level Pressure  
Sea Level Pressure 29.60 in    
Wind  
Wind Speed 5 mph ()    
Max Wind Speed 23 mph    
Max Gust Speed -    
Visibility 6.2 miles    
Events Rain , Thunderstorm    
Averages and records for this station are not official NWS values.
T = Trace of Precipitation, MM = Missing Value Source: Averaged Metar Reports

Daily Weather History Graph

Daily Weather History Graph

Search for Another Location

Airport or City:

Trip Planner

Search our weather history database for the weather conditions in past years. The results will help you decide how hot, cold, wet, or windy it might be!

Date:

Astronomy

May. 20, 2014 Rise Set
Actual Time 5:31 AM IST 9:33 PM IST
Civil Twilight 4:47 AM IST 10:18 PM IST
Nautical Twilight 3:43 AM IST 11:23 PM IST
Astronomical Twilight 2:04 AM IST 12:59 AM IST
Moon 1:36 AM IST (5/20) 11:43 AM IST (5/20)
Length of Visible Light 17h 31m
Length of Day
16h 02m
Waning Gibbous, 62% of the Moon is Illuminated
May 20
Waning Gibbous
May 21
Last Quarter
May 28
New
Jun 5
First Quarter
Jun 13
Full

Hourly Weather History & Observations

Time (IST) Temp. Dew Point Humidity Pressure Visibility Wind Dir Wind Speed Gust Speed Precip Events Conditions
12:00 AM 53 °F 52 °F 95% 29.59 in 11 mi NNW 4.5 mph - - Rain Light Rain Showers
12:00 AM 53.6 °F 51.8 °F 94% 29.56 in 6.2 mi NNW 4.6 mph - N/A Rain Light Rain Showers
12:30 AM 53.6 °F 51.8 °F 94% 29.59 in 6.2 mi Variable 2.3 mph - N/A Rain Light Rain
1:00 AM 53 °F 52 °F 96% 29.59 in 7 mi NW 2.2 mph - - Rain Light Rain
1:00 AM 51.8 °F 51.8 °F 100% 29.56 in 6.2 mi NW 2.3 mph - N/A Rain Light Rain
1:30 AM 53.6 °F 51.8 °F 94% 29.56 in 6.2 mi North 2.3 mph - N/A Rain Light Rain
2:00 AM 53 °F 53 °F 99% 29.58 in 5 mi NW 4.5 mph - - Rain Light Rain
2:00 AM 53.6 °F 53.6 °F 100% 29.56 in 5.0 mi NW 4.6 mph - N/A Rain Light Rain
2:30 AM 53.6 °F 53.6 °F 100% 29.56 in 3.7 mi NW 4.6 mph - N/A Rain Light Rain
3:00 AM 53 °F 53 °F 99% 29.58 in 4 mi North 4.5 mph - - Rain Light Rain
3:00 AM 53.6 °F 53.6 °F 100% 29.56 in 3.7 mi North 3.5 mph - N/A Rain Light Rain
3:30 AM 53.6 °F 51.8 °F 94% 29.56 in 3.7 mi North 2.3 mph - N/A Rain Light Rain
4:00 AM 53 °F 53 °F 100% 29.58 in 3 mi ESE 2.2 mph - - Rain Heavy Rain
4:00 AM 53.6 °F 53.6 °F 100% 29.56 in 3.1 mi Variable 2.3 mph - N/A Rain Rain
4:30 AM 53.6 °F 53.6 °F 100% 29.56 in 3.1 mi Variable 1.2 mph - N/A Rain Rain
5:00 AM 53 °F 53 °F 99% 29.58 in 2 mi WNW 2.2 mph - - Rain Heavy Rain
5:00 AM 53.6 °F 53.6 °F 100% 29.56 in 2.5 mi WNW 1.2 mph - N/A Rain Rain
5:30 AM 53.6 °F 53.6 °F 100% 29.56 in 1.6 mi Variable 2.3 mph - N/A Rain Rain
6:00 AM 54 °F 53 °F 95% 29.58 in 4 mi SE 4.5 mph - - Rain Light Rain
6:00 AM 53.6 °F 53.6 °F 100% 29.56 in 3.7 mi SE 4.6 mph - N/A Rain Light Rain
6:30 AM 53.6 °F 51.8 °F 94% 29.56 in 5.0 mi ENE 2.3 mph - N/A   Mostly Cloudy
7:00 AM 53 °F 52 °F 97% 29.60 in 5 mi South 2.2 mph - - Rain Light Rain
7:00 AM 53.6 °F 51.8 °F 94% 29.59 in 5.0 mi Variable 1.2 mph - N/A   Mostly Cloudy
7:30 AM 53.6 °F 53.6 °F 100% 29.59 in 4.3 mi South 3.5 mph - N/A   Mostly Cloudy
8:00 AM 54 °F 53 °F 95% 29.61 in 4 mi SSW 2.2 mph - -   Mist
8:00 AM 53.6 °F 53.6 °F 100% 29.59 in 6.2 mi SSW 1.2 mph - N/A   Mostly Cloudy
8:30 AM 55.4 °F 53.6 °F 94% 29.59 in 4.3 mi SSE 4.6 mph - N/A   Mostly Cloudy
9:00 AM 55 °F 53 °F 92% 29.61 in 4 mi South 2.2 mph - -   Mist
9:00 AM 55.4 °F 53.6 °F 94% 29.59 in 4.3 mi South 2.3 mph - N/A   Overcast
9:30 AM 55.4 °F 51.8 °F 88% 29.59 in 6.2 mi East 3.5 mph - N/A   Mostly Cloudy
10:00 AM 56 °F 53 °F 88% 29.62 in 8 mi SSE 2.2 mph - -   Mist
10:00 AM 55.4 °F 53.6 °F 94% 29.62 in 6.2 mi SSE 2.3 mph - N/A   Mostly Cloudy
10:30 AM 57.2 °F 53.6 °F 88% 29.59 in 6.2 mi SSE 4.6 mph - N/A   Mostly Cloudy
11:00 AM 59 °F 55 °F 82% 29.62 in 11 mi SSE 4.5 mph - -   Partly Cloudy
11:00 AM 59.0 °F 55.4 °F 88% 29.62 in 6.2 mi SSE 4.6 mph - N/A   Scattered Clouds
11:30 AM 60.8 °F 51.8 °F 72% 29.59 in 6.2 mi South 3.5 mph - N/A   Scattered Clouds
12:00 PM 62 °F 53 °F 65% 29.62 in 12 mi SE 4.5 mph - -   Partly Cloudy
12:00 PM 62.6 °F 53.6 °F 72% 29.59 in 6.2 mi SE 4.6 mph - N/A   Scattered Clouds
12:30 PM 60.8 °F 53.6 °F 77% 29.59 in 6.2 mi SSE 4.6 mph - N/A   Partly Cloudy
1:00 PM 62 °F 54 °F 67% 29.61 in 16 mi SSE 6.7 mph - -   Partly Cloudy
1:00 PM 62.6 °F 53.6 °F 72% 29.59 in 6.2 mi SSE 5.8 mph - N/A   Scattered Clouds
1:30 PM 64.4 °F 53.6 °F 68% 29.59 in 6.2 mi SSW 4.6 mph - N/A   Scattered Clouds
2:00 PM 64 °F 54 °F 60% 29.60 in 19 mi WSW 6.7 mph - -   Partly Cloudy
2:00 PM 64.4 °F 53.6 °F 68% 29.59 in 6.2 mi West 5.8 mph - N/A   Scattered Clouds
2:30 PM 64.4 °F 51.8 °F 64% 29.59 in 6.2 mi WSW 5.8 mph - N/A   Mostly Cloudy
3:00 PM 62 °F 52 °F 62% 29.60 in 10 mi NNW 6.7 mph - - Rain Light Rain Showers
3:00 PM 62.6 °F 51.8 °F 68% 29.59 in 6.2 mi NNW 6.9 mph - N/A Rain Light Rain Showers
3:30 PM 62.6 °F 50.0 °F 63% 29.59 in 6.2 mi North 5.8 mph - N/A   Mostly Cloudy
4:00 PM 62 °F 50 °F 56% 29.60 in 4 mi North 4.5 mph - - Rain , Thunderstorm Thunderstorms and Rain
4:00 PM 62.6 °F 50.0 °F 63% 29.59 in 4.3 mi North 4.6 mph - N/A Rain , Thunderstorm Light Thunderstorms and Rain
4:30 PM 59.0 °F 53.6 °F 82% 29.59 in 1.9 mi SE 23.0 mph - N/A Rain , Thunderstorm Light Thunderstorms and Rain
5:00 PM 54 °F 53 °F 95% 29.62 in 2 mi ESE 15.7 mph - - Rain Light Rain
5:00 PM 55.4 °F 53.6 °F 94% 29.62 in 2.2 mi ESE 15.0 mph - N/A Rain Light Rain Showers
5:30 PM 53.6 °F 51.8 °F 94% 29.59 in 3.7 mi South 12.7 mph - N/A Rain Light Rain Showers
6:00 PM 55 °F 53 °F 92% 29.63 in 6 mi South 8.9 mph - - Rain Light Rain Showers
6:00 PM 55.4 °F 53.6 °F 94% 29.62 in 5.6 mi South 9.2 mph - N/A Rain Light Rain Showers
6:30 PM 55.4 °F 53.6 °F 94% 29.62 in 6.2 mi SSE 12.7 mph - N/A Rain Light Rain
7:00 PM 54 °F 51 °F 87% 29.63 in 10 mi South 15.7 mph - - Rain Light Rain
7:00 PM 53.6 °F 51.8 °F 94% 29.62 in 6.2 mi South 16.1 mph - N/A Rain Light Rain
7:30 PM 53.6 °F 51.8 °F 94% 29.62 in 6.2 mi South 15.0 mph - N/A   Mostly Cloudy
8:00 PM 53 °F 50 °F 87% 29.65 in 12 mi SSW 11.2 mph - - Rain Light Rain
8:00 PM 53.6 °F 50.0 °F 88% 29.62 in 6.2 mi SSW 10.4 mph - N/A Rain Light Rain
8:30 PM 53.6 °F 50.0 °F 88% 29.65 in 6.2 mi SSW 9.2 mph - N/A   Mostly Cloudy
9:00 PM 53 °F 50 °F 87% 29.66 in 16 mi SSW 6.7 mph - - Rain Light Rain
9:00 PM 53.6 °F 50.0 °F 88% 29.65 in 6.2 mi SSW 6.9 mph - N/A   Mostly Cloudy
9:30 PM 53.6 °F 50.0 °F 88% 29.65 in 6.2 mi SSE 5.8 mph - N/A Rain Light Rain
10:00 PM 53 °F 51 °F 92% 29.69 in 12 mi ESE 8.9 mph - - Rain Light Rain
10:00 PM 53.6 °F 51.8 °F 94% 29.68 in 6.2 mi ESE 8.1 mph - N/A   Mostly Cloudy
10:30 PM 53.6 °F 51.8 °F 94% 29.68 in 6.2 mi SE 9.2 mph - N/A   Mostly Cloudy
11:00 PM 52 °F 51 °F 94% 29.69 in 11 mi SE 8.9 mph - - Rain Light Rain Showers
11:00 PM 51.8 °F 50.0 °F 94% 29.68 in 6.2 mi SE 9.2 mph - N/A   Mostly Cloudy
11:30 PM 51.8 °F 50.0 °F 94% 29.68 in 6.2 mi SSE 10.4 mph - N/A   Mostly Cloudy